RH
54 51 44 38 32 19 12 12 17 28 33 20 8 7 7 8 9 11 12 14 17 22 30 33 36 36 36 26 12 11 13 23 35 41 44 44 43 40 30 24 22 20 24 23 25 26 25
54 51 47 39 29 20 16 16 11 13 22 9 8 8 7 7 6 7 8 9 11 15 20 22 23 26 32 24 12 9 9 12 17 24 28 28 28 42 48 52 49 44 41 39 40 43 34
47 46 44 43 42 41 35 27 16 9 11 13 12 10 7 7 6 5 7 8 10 9 9 8 8 9 17 10 9 10 10 9 10 11 12 14 14 15 17 20 28 45 51 53 57 63 56
46 45 44 41 45 47 40 32 28 23 10 7 15 15 12 6 6 7 9 12 12 11 11 12 12 10 8 8 9 12 13 14 15 14 14 15 14 16 19 21 12 14 37 47 55 61 51
50 40 37 34 32 30 27 26 26 26 22 8 6 7 7 6 7 9 10 11 11 11 12 12 13 14 14 15 16 15 15 17 18 20 21 24 24 24 24 24 11 15 17 15 11 14 16
45 37 32 29 28 27 25 21 10 10 22 15 7 6 5 4 6 8 7 8 12 16 18 18 16 18 19 22 22 23 26 26 26 26 26 28 29 30 31 32 21 21 27 24 20 24 25
39 35 32 31 28 15 16 12 4 7 12 13 7 4 4 5 5 6 10 19 24 22 20 18 20 23 23 24 27 29 27 31 35 36 36 37 37 38 36 36 33 29 28 29 34 33 32
38 35 32 30 26 8 6 4 4 8 8 6 5 5 9 15 17 21 24 24 21 19 18 18 18 23 30 33 31 34 39 41 43 43 43 42 41 41 42 39 40 41 40 40 39 40 35
46 39 35 34 24 8 4 3 3 5 6 14 15 17 21 23 22 21 22 24 24 24 24 22 21 26 31 34 38 43 44 43 41 39 41 43 44 45 47 48 43 37 29 24 20 18 17
52 44 38 28 14 8 10 6 8 16 20 21 23 26 27 25 23 20 22 22 23 26 28 32 37 39 41 45 47 46 42 38 35 33 36 40 46 45 39 34 29 23 22 20 20 20 18
49 35 21 12 11 11 16 33 34 32 32 31 29 28 25 25 24 22 20 22 26 26 36 40 49 54 56 57 56 52 49 44 38 34 34 30 27 24 24 23 22 21 22 23 38 44 54
44 27 18 20 23 26 33 38 38 37 36 35 32 29 28 27 24 23 21 21 24 37 44 45 54 56 55 55 53 47 42 37 34 33 31 30 28 28 28 28 30 40 56 44 32 32 31
30 16 26 41 44 42 40 38 37 40 39 36 33 32 31 31 33 33 30 28 35 44 48 51 52 50 46 42 42 46 48 54 57 51 49 46 46 53 44 34 30 26 25 25 24 25 26
20 16 31 49 49 46 42 42 43 43 45 46 42 42 42 45 47 46 43 43 52 58 67 64 56 57 56 60 77 99 99 96 96 88 81 79 76 54 40 29 24 21 18 16 15 15 18
23 40 46 53 51 49 47 46 46 48 42 40 46 54 48 53 57 62 69 67 73 81 80 78 76 86 97 100 99 100 99 97 73 68 68 79 72 50 33 25 20 15 12 14 19 21 21
22 30 45 54 52 52 54 54 50 43 37 34 36 38 49 52 69 72 81 90 91 92 97 99 98 99 99 99 98 99 98 96 93 83 53 37 30 24 20 16 12 12 15 23 33 32 27
18 36 54 64 63 63 62 56 48 40 36 33 26 26 31 44 50 55 54 54 64 80 86 88 92 95 97 97 95 100 97 84 72 58 42 35 32 23 19 11 10 16 24 30 32 30 30
63 69 72 73 73 68 58 52 47 36 30 31 22 23 24 27 33 36 39 38 35 42 60 68 74 86 93 98 97 100 100 100 85 62 44 37 30 22 17 17 23 28 30 30 26 48 34
77 81 79 74 66 50 49 52 46 40 38 29 18 10 6 3 3 3 3 5 6 7 18 31 55 80 94 100 100 100 100 100 96 70 45 32 26 18 21 26 27 27 26 25 27 38 53
91 87 78 67 56 52 59 61 56 42 19 9 7 4 3 3 3 3 3 3 5 7 9 13 18 30 51 95 100 100 100 100 100 66 35 26 19 23 24 24 24 23 35 43 52 62 59
82 78 69 60 63 65 54 30 14 6 4 3 3 3 3 3 4 5 5 6 7 9 10 15 20 23 29 44 70 100 100 100 90 55 32 25 21 25 27 36 41 38 44 66 77 76 73
74 69 68 67 52 30 15 6 4 3 3 4 4 4 4 5 12 20 25 28 32 35 33 26 23 35 64 89 87 90 100 100 83 51 35 29 26 35 40 51 43 45 55 58 66 83 88
61 70 63 39 18 13 11 4 4 4 4 5 7 10 12 13 18 30 41 46 58 63 56 48 40 36 48 85 100 100 100 100 80 50 39 37 58 58 45 43 34 31 38 43 59 88 100
72 52 29 20 19 10 4 5 5 6 10 11 15 16 16 15 15 19 33 46 68 78 69 58 42 36 56 82 99 100 100 96 68 46 60 77 67 43 31 25 27 38 32 39 47 64 68
40 29 27 21 8 5 5 5 6 11 17 18 15 11 9 10 11 17 30 50 100 100 80 56 51 53 68 97 97 98 96 81 73 75 70 44 34 35 30 36 56 54 56 60 58 57 57
31 26 18 7 5 5 5 6 9 15 15 12 9 8 9 15 25 36 55 90 100 100 77 72 80 89 94 97 100 100 95 88 71 41 37 45 44 48 56 50 56 75 71 77 82 77 79
24 14 6 5 5 6 7 9 13 14 13 11 10 10 12 20 32 94 100 100 100 100 80 79 96 95 100 100 100 100 100 74 47 55 64 66 68 78 83 80 66 95 94 91 100 98 96
7 6 6 6 7 9 11 14 15 14 12 10 10 11 18 52 91 100 100 100 100 100 96 98 100 98 100 99 100 100 96 67 80 82 88 89 95 100 96 94 91 88 97 100 97 93 99
6 6 7 8 11 14 16 16 14 12 11 12 14 25 40 96 100 100 100 100 100 100 94 100 100 100 100 100 100 100 84 83 80 97 100 100 100 100 100 92 96 100 100 100 100 100 99
Wind_Speed
21 21 23 24 25 26 25 25 27 28 28 26 19 20 20 17 18 22 25 28 29 27 31 33 34 36 38 36 37 39 42 43 42 41 40 40 40 43 42 40 41 40 35 35 35 35 36
21 24 25 25 26 27 27 28 28 27 25 22 24 25 25 23 20 21 22 24 23 23 28 31 33 34 34 31 32 32 32 34 37 38 40 40 41 42 43 42 43 42 40 39 38 37 39
23 26 27 28 29 29 29 28 28 28 27 26 28 30 31 31 29 27 27 28 29 29 28 30 31 30 28 33 30 31 32 33 35 36 37 38 39 41 40 42 44 46 46 46 42 40 44
27 28 29 29 31 32 31 31 30 28 29 29 32 33 34 32 30 30 32 33 34 36 39 39 37 36 34 34 36 38 38 39 41 40 40 40 39 40 41 43 43 45 46 46 44 46 47
31 29 30 32 34 35 36 36 34 32 32 32 32 34 34 33 30 32 34 35 37 39 40 40 41 41 42 40 40 42 44 44 45 46 45 43 43 44 42 41 43 40 42 44 43 41 44
30 31 33 37 41 43 43 44 41 36 35 36 31 32 32 34 33 35 37 40 44 44 46 46 45 46 45 45 44 44 46 47 47 46 46 45 46 45 41 43 46 47 46 44 42 43 44
33 35 40 43 46 46 45 42 41 36 31 31 28 30 31 33 36 38 41 44 45 44 44 44 46 50 51 50 49 48 46 46 48 48 47 46 46 44 47 45 44 43 42 44 43 44 44
37 41 44 48 47 45 42 40 37 35 34 31 29 30 32 34 37 40 44 45 43 44 43 44 45 47 47 47 48 48 49 46 46 46 46 46 44 44 41 38 39 42 44 43 42 44 46
42 44 47 50 49 43 39 36 33 33 32 33 34 36 39 40 41 46 49 49 49 49 49 46 46 45 45 44 44 43 43 43 40 38 35 33 32 33 35 38 39 40 42 43 44 46 45
47 49 52 52 48 40 36 34 34 35 36 39 40 43 44 47 49 52 54 55 54 56 52 50 46 42 41 39 37 36 35 35 35 34 34 35 35 37 39 41 42 43 43 45 47 50 51
49 52 51 50 44 37 36 39 38 39 41 43 44 47 49 51 51 53 54 54 55 54 51 49 45 42 40 39 39 38 38 38 37 37 36 38 40 41 42 43 44 46 48 50 53 55 57
54 53 50 45 42 41 41 41 42 44 46 47 49 51 53 53 54 56 55 54 57 52 47 44 40 39 38 37 36 35 36 35 35 37 39 40 41 41 42 44 47 51 54 55 56 57 60
53 50 46 48 46 43 43 44 46 49 51 53 54 55 55 54 57 58 56 54 50 46 45 40 36 37 37 34 34 33 34 34 34 36 37 40 41 44 46 48 50 53 57 61 64 64 65
53 49 51 53 50 49 49 51 52 54 56 57 58 57 59 59 60 55 50 47 44 42 41 40 37 36 36 35 36 38 38 40 39 40 42 43 45 46 49 51 54 57 59 59 63 64 64
51 51 53 54 54 56 57 58 58 58 57 58 60 60 61 60 54 50 45 42 42 42 44 44 42 43 44 44 42 40 39 40 41 42 44 47 48 50 53 56 58 59 58 55 54 54 56
49 52 57 56 56 59 61 62 60 59 59 61 60 59 57 55 52 50 48 46 45 45 45 45 46 46 45 44 43 42 43 45 46 46 47 49 50 51 55 57 58 57 55 50 49 50 51
57 60 61 60 62 63 64 62 62 61 62 60 59 58 58 56 56 54 53 53 53 53 51 52 52 54 52 50 48 46 46 47 47 47 49 50 53 56 56 56 54 52 51 50 48 48 48
62 60 59 62 65 65 64 66 65 66 63 62 63 64 64 62 61 62 61 61 62 59 58 58 58 57 55 54 51 51 49 48 48 49 49 50 54 56 54 51 48 47 45 46 47 39 47
63 62 64 64 65 67 68 69 70 70 70 71 70 67 66 65 65 64 63 62 62 60 57 57 58 56 55 53 50 50 50 50 49 50 51 51 53 52 47 45 45 43 44 44 41 40 41
61 64 65 66 68 69 70 72 73 74 75 73 74 72 69 69 69 69 67 65 65 64 61 59 57 56 55 53 50 51 50 49 48 49 50 50 52 46 44 43 41 40 36 35 37 41 39
66 66 67 70 73 74 75 77 79 79 77 76 75 73 72 71 66 64 62 60 57 55 55 56 56 56 54 52 51 49 48 48 46 46 46 48 47 43 40 36 38 40 35 29 34 33 39
65 68 71 73 73 75 77 77 79 79 80 78 76 73 72 64 54 50 48 48 45 43 43 43 45 45 45 44 46 42 44 44 44 42 42 41 41 38 33 33 36 33 31 34 34 33 36
67 71 72 73 75 76 78 77 78 78 78 75 69 63 61 58 50 45 44 46 44 43 41 41 41 42 41 40 38 38 38 41 41 35 35 35 31 32 28 30 30 29 28 28 26 26 25
72 72 74 74 77 78 77 79 78 73 67 66 60 58 57 56 53 50 49 47 47 45 46 43 43 42 40 37 34 35 37 35 35 31 29 26 27 28 21 18 11 13 13 12 12 12 13
72 74 77 79 77 77 79 79 73 66 61 60 60 58 59 57 57 53 51 49 45 45 44 44 38 38 39 36 33 30 26 29 27 25 26 26 19 11 8 3 3 8 7 9 9 7 13
76 80 80 78 77 79 79 74 69 62 60 59 58 57 56 55 55 53 52 49 45 46 41 37 36 33 30 26 26 24 21 20 21 20 16 12 7 5 6 6 1 9 8 10 11 10 10
82 80 78 78 78 78 74 71 66 62 60 61 59 56 54 51 51 47 47 44 44 40 39 33 32 23 20 20 19 17 16 13 11 10 9 9 8 10 13 13 8 10 13 16 19 19 16
78 77 78 79 78 75 72 68 66 65 63 61 57 52 50 45 43 39 39 41 40 32 32 31 27 21 19 15 15 15 11 11 12 10 12 12 13 13 15 18 19 18 21 23 24 24 23
78 80 80 79 76 72 71 71 69 66 60 55 51 48 43 35 35 31 37 36 28 23 23 22 17 12 10 10 12 11 9 10 12 10 14 11 14 17 22 23 25 27 26 27 26 23 20
Wind_Direction
325 325 328 329 326 325 324 322 317 308 305 305 304 308 309 313 310 301 296 294 292 288 284 287 288 287 286 291 293 292 282 278 278 279 278 278 278 278 277 276 276 274 273 270 270 270 268
326 326 327 328 329 325 326 327 322 317 304 296 293 296 292 295 296 296 299 301 299 290 284 281 280 279 280 283 290 292 287 281 278 276 275 275 274 272 270 271 270 270 268 266 265 266 266
328 326 327 327 325 323 321 322 324 319 304 291 293 297 295 295 297 296 295 296 294 291 286 286 286 284 276 276 276 277 279 279 277 274 273 273 273 273 272 272 270 267 265 263 265 266 264
326 326 326 323 318 315 313 313 313 316 310 292 287 290 294 295 293 295 297 299 302 300 296 291 289 284 279 275 275 275 273 273 274 274 274 273 272 273 275 278 273 266 264 264 261 261 262
326 326 322 317 314 314 314 312 309 308 310 304 289 288 293 295 295 297 300 302 301 302 301 296 291 287 284 282 278 275 274 274 274 276 275 274 272 272 272 276 266 265 271 271 271 272 267
319 318 316 316 318 319 316 317 317 306 306 314 305 297 298 298 298 301 306 307 305 303 300 296 292 289 286 284 280 276 275 277 275 275 275 275 275 274 275 270 270 273 275 271 272 274 273
318 317 318 320 323 323 318 317 321 317 311 309 308 306 306 305 305 305 304 303 305 304 302 298 294 290 288 285 282 279 275 274 274 272 272 272 273 274 273 275 273 272 274 275 277 275 272
315 318 320 321 323 323 321 321 321 318 318 317 316 314 310 308 305 305 304 304 302 302 301 296 292 290 284 282 280 280 279 275 271 270 271 271 273 272 268 266 270 274 275 275 273 275 274
315 315 317 320 324 324 325 326 324 322 320 320 313 308 308 308 309 310 310 307 306 303 301 296 292 287 287 286 281 276 273 273 273 271 267 266 264 261 264 270 274 274 275 275 275 276 275
316 317 320 323 326 325 325 322 318 315 314 311 311 311 310 311 311 313 310 309 309 309 307 299 296 293 288 283 276 271 268 272 275 274 270 268 267 270 275 277 277 276 278 278 280 281 280
316 319 322 324 324 327 327 322 316 312 309 309 309 310 311 309 308 309 310 306 309 309 307 305 297 292 286 281 278 274 274 274 275 274 271 273 273 275 277 278 277 277 277 277 275 274 273
318 320 326 325 324 322 318 313 311 310 309 307 310 312 311 309 309 313 313 315 313 310 305 301 295 290 286 283 280 278 276 275 274 274 275 277 277 279 279 279 279 279 279 278 276 275 273
319 320 319 321 319 317 316 314 313 311 312 312 310 309 309 310 315 317 318 318 312 306 303 297 289 286 283 282 279 280 280 279 281 280 278 280 283 282 282 281 281 281 281 281 280 278 276
315 315 318 318 316 315 312 311 310 310 311 312 312 315 315 318 319 319 316 314 308 303 297 293 287 284 284 282 279 280 281 282 281 282 285 285 284 284 284 284 283 283 282 280 278 276 275
321 321 319 318 314 312 311 312 312 312 314 316 319 321 320 320 317 314 311 310 307 302 298 290 287 285 283 281 277 282 284 283 284 282 283 285 285 285 285 286 287 287 284 281 278 276 275
315 317 315 311 309 310 311 311 311 313 315 316 318 319 318 316 312 309 307 304 301 298 297 292 288 288 287 288 289 289 288 288 287 286 287 287 287 286 287 287 286 284 282 280 279 279 278
315 315 314 311 310 310 311 312 312 313 313 314 317 316 314 310 308 303 302 300 298 295 292 291 289 289 290 289 287 286 286 285 285 285 285 287 289 290 290 288 284 281 279 279 278 279 279
314 310 310 312 312 313 314 313 312 312 313 314 315 313 312 310 304 301 300 298 296 292 290 288 287 288 287 288 286 285 283 282 284 286 287 288 290 291 293 290 286 282 280 280 280 280 279
315 315 315 315 314 314 313 313 312 312 312 313 313 313 312 310 306 303 301 298 294 291 288 286 285 284 283 284 283 282 281 282 284 285 286 288 291 292 290 285 282 281 280 279 277 277 273
316 316 316 314 312 313 314 314 313 313 313 313 312 312 312 309 306 302 299 295 291 288 285 284 282 281 280 279 281 281 282 283 284 285 286 286 288 288 286 286 285 283 279 282 277 272 278
317 315 314 313 315 316 317 316 315 314 313 313 314 313 313 310 306 303 301 299 298 295 291 288 284 281 281 279 278 280 282 283 284 284 285 285 286 285 285 285 285 287 290 279 270 270 267
314 313 313 316 316 317 316 316 314 313 314 314 314 314 313 312 310 311 308 306 307 305 302 298 290 285 283 281 279 279 279 279 280 280 280 281 283 283 286 287 288 289 286 280 278 276 274
313 314 316 316 317 316 314 314 314 314 314 315 315 312 312 313 313 315 310 308 308 306 304 302 298 293 285 283 283 282 277 279 280 278 275 278 280 283 291 284 287 286 281 281 281 279 279
315 316 316 317 315 314 314 315 314 314 314 314 312 311 311 311 312 310 306 305 303 304 302 302 297 293 286 281 281 286 276 283 284 279 276 276 276 284 291 293 293 282 296 301 300 282 289
316 316 315 315 312 314 315 314 313 314 312 310 310 310 308 308 306 307 302 302 303 301 300 300 292 288 284 284 282 281 283 286 280 274 273 275 276 278 279 276 155 322 341 350 352 293 282
315 316 316 314 314 314 313 313 314 313 310 309 310 309 305 304 304 301 302 304 305 301 296 292 288 282 286 286 289 286 285 280 276 266 259 254 260 269 281 279 352 297 310 323 320 308 298
315 314 314 314 313 313 314 314 313 312 311 309 310 306 301 296 295 294 295 298 296 291 288 291 296 298 288 287 285 285 283 271 242 228 237 256 274 286 286 286 289 291 296 300 296 292 281
314 314 314 314 315 315 315 314 313 312 312 311 309 303 296 290 290 293 294 292 288 282 288 298 298 296 284 271 270 270 257 221 221 236 252 267 276 271 272 281 286 292 297 293 292 291 287
316 316 315 316 316 316 314 313 313 313 313 311 305 302 298 293 293 294 292 290 279 287 294 300 298 293 263 252 258 250 234 228 248 245 261 270 278 276 277 279 288 295 297 296 294 294 290